Location: Newark
(34.0111°N, 88.4892°W)
Time: 22:46:11
(UTC+00:00)

LightSail 2 - Pass Details

Date: 04 March 2020
Orbit: 693 x 726 km, 24.0° (Epoch: 02 April)

Event Time Altitude Azimuth Distance (km) Brightness Sun altitude
Rises 01:32:30 0° 215° (SW) 3,044 8.8 -21.5°
Reaches altitude 10° 01:36:15 10° 187° (S) 2,128 7.6 -22.3°
Enters shadow 01:37:28 12° 174° (S) 1,984 7.3 -22.5°
